Погода в Хмельницком

Украина / Хмельницкая область     49°25′22″N   26°59′13″E
темп.,
°C
ветер,
м/с
пор.,
м/с
влажн.,
%
обл.,
%
осадки,
мм/ч
давл.,
гПа
погр.,
м
18 апреля, вс
вс1800:00+4сз119287 0.0 102012
03:00+4зсз119164 0.0 102027
06:00+2ссз129411 0.0 102010
09:00+6зсз118074 0.0 1019294
12:00+10сз1261100 0.0 10181130
15:00+12ссз2253100 0.0 10181388
18:00+12ссв1250100 0.0 10171471
21:00+8св3581100 0.1 101899
19 апреля, пн
пн1900:00+9вюв1178100 0.0 101813
03:00+8ююв1180100 0.0 101711
06:00+8в0083100 0.0 101610
09:00+9вюв1278100 0.3 1017200
12:00+10св3373100 0.6 1016672
15:00+11св436889 0.8 10151041
18:00+11всв4568100 0.1 1015970
21:00+9в597688 0.4 1014466
20 апреля, вт
вт2000:00+6всв388650 0.0 1014172
03:00+5св388595 0.0 1013177
06:00+3св499078 0.0 1012203
09:00+7св5879100 0.0 1012449
12:00+10св6758100 0.2 10111673
15:00+11ссв565399 0.6 10101647
18:00+10ссв476285 0.3 10101260
21:00+6с35805 0.6 101195
21 апреля, ср
ср2100:00+4ссз23895 0.0 101254
03:00+3зсз33905 0.0 101360
06:00+2зсз33907 0.0 101356
09:00+7з347788 0.0 1014339
12:00+9зсз457098 0.5 10141024
15:00+12з575497 1.1 10131621
18:00+13з464792 0.3 10132054
21:00+8зюз347394 0.4 101560
22 апреля, чт
чт2200:00+8юз5107980 0.1 1016240
03:00+7зюз368771 0.1 1017115
06:00+6юз358877 0.0 101884
09:00+10юз457190 0.0 1018331
12:00+14юз455743 0.1 10181335
15:00+16юз454785 0.2 10182096
18:00+13ю3562100 0.3 1018123
21:00+11ю226779 0.6 101920